| time (UTC) | temp F | wind direction | speed MPH | gust MPH | rain 1hr in | rain 24hr in | rain mn in | humidity % | barometer mb |
| 20260505221910 | 60 | 215 | 2.0 | 6.0 | 0.18 | 0.48 | 0.48 | 97 | 1007.9 |
| 20260505221338 | 60 | 243 | 2.0 | 6.0 | 0.17 | 0.47 | 0.47 | 96 | 1008.0 |
| 20260505220830 | 60 | 225 | 2.0 | 5.0 | 0.18 | 0.47 | 0.47 | 96 | 1008.1 |
| 20260505220323 | 60 | 207 | 3.0 | 7.0 | 0.17 | 0.46 | 0.46 | 96 | 1008.1 |
| 20260505215816 | 60 | 219 | 3.0 | 7.0 | 0.16 | 0.45 | 0.45 | 96 | 1008.2 |
| 20260505215325 | 60 | 208 | 4.0 | 7.0 | 0.14 | 0.43 | 0.43 | 96 | 1008.2 |
| 20260505214818 | 60 | 248 | 1.0 | 8.0 | 0.12 | 0.41 | 0.41 | 96 | 1008.2 |
| 20260505214315 | 60 | 213 | 3.0 | 6.0 | 0.09 | 0.38 | 0.38 | 96 | 1008.2 |
| 20260505213828 | 60 | 168 | 2.0 | 7.0 | 0.05 | 0.34 | 0.34 | 96 | 1008.2 |
| 20260505213321 | 60 | 215 | 3.0 | 8.0 | 0.03 | 0.32 | 0.32 | 96 | 1008.1 |
| 20260505212828 | 60 | 213 | 4.0 | 9.0 | 0.02 | 0.31 | 0.31 | 96 | 1008.0 |
| 20260505212321 | 60 | 210 | 5.0 | 9.0 | 0.01 | 0.30 | 0.30 | 95 | 1008.1 |
| 20260505211834 | 60 | 219 | 3.0 | 10.0 | 0.01 | 0.30 | 0.30 | 95 | 1008.1 |
| 20260505211325 | 60 | 217 | 4.0 | 10.0 | 0.02 | 0.30 | 0.30 | 95 | 1008.1 |
| 20260505210818 | 60 | 221 | 5.0 | 8.0 | 0.01 | 0.29 | 0.29 | 95 | 1008.1 |
| 20260505210315 | 60 | 224 | 3.0 | 7.0 | 0.01 | 0.29 | 0.29 | 95 | 1008.1 |
| 20260505205848 | 60 | 216 | 4.0 | 9.0 | 0.02 | 0.29 | 0.29 | 95 | 1008.1 |
| 20260505205319 | 60 | 226 | 3.0 | 8.0 | 0.03 | 0.29 | 0.29 | 95 | 1008.2 |
| 20260505204811 | 60 | 225 | 2.0 | 7.0 | 0.03 | 0.29 | 0.29 | 95 | 1008.2 |
| 20260505204323 | 60 | 148 | 2.0 | 7.0 | 0.04 | 0.29 | 0.29 | 95 | 1008.2 |
| 20260505203816 | 60 | 209 | 2.0 | 8.0 | 0.04 | 0.29 | 0.29 | 95 | 1008.1 |
| 20260505203350 | 60 | 179 | 3.0 | 8.0 | 0.05 | 0.29 | 0.29 | 95 | 1008.2 |
| 20260505202822 | 60 | 204 | 1.0 | 7.0 | 0.06 | 0.29 | 0.29 | 95 | 1008.3 |
| 20260505202314 | 61 | 217 | 3.0 | 6.0 | 0.07 | 0.29 | 0.29 | 95 | 1008.4 |
| 20260505201810 | 61 | 202 | 3.0 | 6.0 | 0.07 | 0.29 | 0.29 | 94 | 1008.3 |
| 20260505201323 | 61 | 214 | 2.0 | 6.0 | 0.07 | 0.28 | 0.28 | 94 | 1008.3 |
| 20260505200836 | 61 | 145 | 3.0 | 5.0 | 0.08 | 0.28 | 0.28 | 94 | 1008.3 |
| 20260505200328 | 60 | 232 | 2.0 | 7.0 | 0.08 | 0.28 | 0.28 | 94 | 1008.5 |
| 20260505195821 | 61 | 195 | 3.0 | 7.0 | 0.08 | 0.27 | 0.27 | 94 | 1008.4 |
| 20260505195314 | 61 | 221 | 2.0 | 6.0 | 0.08 | 0.26 | 0.26 | 93 | 1008.4 |
| 20260505194827 | 61 | 207 | 3.0 | 6.0 | 0.08 | 0.27 | 0.26 | 93 | 1008.5 |
| 20260505194319 | 61 | 219 | 0.0 | 3.0 | 0.07 | 0.26 | 0.25 | 93 | 1008.6 |
| 20260505193812 | 61 | 217 | 1.0 | 3.0 | 0.07 | 0.26 | 0.25 | 92 | 1008.9 |
| 20260505193328 | 61 | 228 | 1.0 | 6.0 | 0.06 | 0.25 | 0.24 | 92 | 1009.0 |
| 20260505192821 | 61 | 234 | 2.0 | 8.0 | 0.05 | 0.24 | 0.23 | 91 | 1009.0 |
| 20260505192315 | 61 | 259 | 4.0 | 12.0 | 0.04 | 0.23 | 0.22 | 90 | 1009.1 |
| 20260505191827 | 61 | 217 | 5.0 | 14.0 | 0.04 | 0.23 | 0.22 | 89 | 1009.1 |
| 20260505191320 | 62 | 238 | 7.0 | 14.0 | 0.03 | 0.22 | 0.21 | 88 | 1009.1 |
| 20260505190813 | 62 | 232 | 7.0 | 13.0 | 0.02 | 0.21 | 0.20 | 87 | 1009.1 |
| 20260505190325 | 63 | 254 | 6.0 | 14.0 | 0.02 | 0.21 | 0.20 | 86 | 1009.1 |
| 20260505185818 | 63 | 243 | 9.0 | 14.0 | 0.01 | 0.20 | 0.19 | 84 | 1009.1 |
| 20260505185336 | 64 | 218 | 5.0 | 12.0 | 0.00 | 0.19 | 0.18 | 82 | 1009.1 |
| 20260505184827 | 64 | 231 | 5.0 | 12.0 | 0.00 | 0.21 | 0.18 | 80 | 1009.0 |
| 20260505184340 | 64 | 254 | 4.0 | 12.0 | 0.00 | 0.21 | 0.18 | 80 | 1009.0 |
| 20260505183812 | 65 | 231 | 6.0 | 12.0 | 0.00 | 0.21 | 0.18 | 78 | 1008.9 |
| 20260505183325 | 65 | 229 | 5.0 | 11.0 | 0.00 | 0.21 | 0.18 | 78 | 1009.0 |
| 20260505182838 | 65 | 207 | 5.0 | 14.0 | 0.00 | 0.21 | 0.18 | 78 | 1009.0 |
| 20260505182329 | 65 | 235 | 6.0 | 14.0 | 0.00 | 0.21 | 0.18 | 79 | 1008.9 |
| 20260505181822 | 65 | 207 | 5.0 | 10.0 | 0.00 | 0.21 | 0.18 | 78 | 1009.0 |
| 20260505181315 | 65 | 149 | 4.0 | 13.0 | 0.00 | 0.21 | 0.18 | 79 | 1009.0 |
| 20260505180811 | 65 | 200 | 7.0 | 13.0 | 0.00 | 0.21 | 0.18 | 78 | 1009.1 |
| 20260505180324 | 65 | 233 | 5.0 | 12.0 | 0.00 | 0.21 | 0.18 | 79 | 1009.1 |
| 20260505175817 | 65 | 224 | 7.0 | 12.0 | 0.00 | 0.21 | 0.18 | 78 | 1009.2 |
| 20260505175330 | 65 | 198 | 4.0 | 9.0 | 0.00 | 0.21 | 0.18 | 79 | 1009.2 |
| 20260505174822 | 65 | 245 | 4.0 | 10.0 | 0.00 | 0.21 | 0.18 | 78 | 1009.2 |
| 20260505174315 | 65 | 222 | 5.0 | 11.0 | 0.00 | 0.21 | 0.18 | 78 | 1009.1 |
| 20260505173828 | 65 | 222 | 7.0 | 11.0 | 0.00 | 0.21 | 0.18 | 77 | 1009.1 |
| 20260505173341 | 65 | 220 | 8.0 | 11.0 | 0.00 | 0.21 | 0.18 | 77 | 1009.3 |
| 20260505172811 | 65 | 195 | 4.0 | 12.0 | 0.00 | 0.21 | 0.18 | 79 | 1009.4 |
| 20260505172329 | 65 | 169 | 6.0 | 15.0 | 0.00 | 0.21 | 0.18 | 78 | 1009.3 |
| 20260505171822 | 65 | 288 | 7.0 | 15.0 | 0.00 | 0.21 | 0.18 | 78 | 1009.2 |
| 20260505171334 | 65 | 203 | 5.0 | 14.0 | 0.00 | 0.21 | 0.18 | 79 | 1009.3 |
| 20260505170826 | 65 | 214 | 7.0 | 14.0 | 0.00 | 0.21 | 0.18 | 78 | 1009.4 |
| 20260505170339 | 65 | 210 | 5.0 | 11.0 | 0.00 | 0.21 | 0.18 | 79 | 1009.4 |
| 20260505165811 | 65 | 231 | 7.0 | 11.0 | 0.00 | 0.21 | 0.18 | 79 | 1009.5 |
| 20260505165324 | 65 | 200 | 5.0 | 10.0 | 0.00 | 0.21 | 0.18 | 80 | 1009.5 |
| 20260505164817 | 65 | 219 | 5.0 | 10.0 | 0.00 | 0.21 | 0.18 | 80 | 1009.4 |
| 20260505164330 | 65 | 221 | 3.0 | 10.0 | 0.00 | 0.21 | 0.18 | 81 | 1009.5 |
| 20260505163827 | 64 | 218 | 4.0 | 10.0 | 0.00 | 0.21 | 0.18 | 81 | 1009.5 |
| 20260505163339 | 64 | 255 | 6.0 | 10.0 | 0.00 | 0.21 | 0.18 | 80 | 1009.4 |
| 20260505162811 | 64 | 222 | 4.0 | 8.0 | 0.00 | 0.21 | 0.18 | 81 | 1009.5 |
| 20260505162324 | 64 | 247 | 4.0 | 11.0 | 0.00 | 0.21 | 0.18 | 81 | 1009.4 |
| 20260505161817 | 64 | 205 | 5.0 | 11.0 | 0.00 | 0.21 | 0.18 | 80 | 1009.5 |
| 20260505161330 | 64 | 224 | 5.0 | 9.0 | 0.00 | 0.21 | 0.18 | 80 | 1009.5 |
| 20260505160822 | 64 | 269 | 6.0 | 10.0 | 0.00 | 0.21 | 0.18 | 80 | 1009.5 |
| 20260505160316 | 64 | 242 | 5.0 | 10.0 | 0.00 | 0.21 | 0.18 | 80 | 1009.6 |
| 20260505153312 | 65 | 213 | 4.0 | 10.0 | 0.00 | 0.21 | 0.18 | 82 | 1009.5 |
| 20260505152825 | 65 | 216 | 5.0 | 12.0 | 0.00 | 0.21 | 0.18 | 83 | 1009.4 |
| 20260505152318 | 65 | 210 | 6.0 | 13.0 | 0.00 | 0.21 | 0.18 | 82 | 1009.3 |
| 20260505151851 | 65 | 203 | 8.0 | 14.0 | 0.00 | 0.21 | 0.18 | 82 | 1009.2 |
| 20260505151323 | 65 | 217 | 6.0 | 13.0 | 0.00 | 0.21 | 0.18 | 83 | 1009.2 |
| 20260505150819 | 65 | 136 | 5.0 | 11.0 | 0.00 | 0.21 | 0.18 | 84 | 1009.2 |
| 20260505150312 | 65 | 223 | 5.0 | 10.0 | 0.00 | 0.21 | 0.18 | 85 | 1009.3 |
| 20260505140325 | 62 | 229 | 6.0 | 10.0 | 0.00 | 0.21 | 0.18 | 88 | 1008.8 |
| 20260505124821 | 57 | 215 | 1.0 | 3.0 | 0.01 | 0.21 | 0.18 | 97 | 1008.1 |
| 20260505124313 | 57 | 176 | 1.0 | 4.0 | 0.01 | 0.21 | 0.18 | 97 | 1008.4 |
| 20260505123827 | 57 | 216 | 1.0 | 4.0 | 0.02 | 0.21 | 0.18 | 97 | 1008.6 |
| 20260505123319 | 57 | 149 | 1.0 | 3.0 | 0.02 | 0.21 | 0.18 | 97 | 1008.7 |
| 20260505122850 | 57 | 210 | 1.0 | 5.0 | 0.03 | 0.21 | 0.18 | 97 | 1008.9 |
| 20260505122342 | 56 | 219 | 3.0 | 5.0 | 0.03 | 0.21 | 0.18 | 97 | 1008.7 |
| 20260505121833 | 56 | 223 | 2.0 | 4.0 | 0.04 | 0.21 | 0.18 | 97 | 1008.6 |
| 20260505121325 | 56 | 200 | 1.0 | 4.0 | 0.03 | 0.20 | 0.17 | 97 | 1008.4 |
| 20260505120821 | 56 | 142 | 2.0 | 5.0 | 0.03 | 0.20 | 0.17 | 97 | 1008.9 |
| 20260505120335 | 56 | 179 | 2.0 | 5.0 | 0.03 | 0.20 | 0.17 | 97 | 1008.9 |
| 20260505115826 | 56 | 180 | 2.0 | 6.0 | 0.03 | 0.20 | 0.17 | 97 | 1008.9 |
| 20260505115319 | 56 | 209 | 4.0 | 6.0 | 0.03 | 0.20 | 0.17 | 97 | 1009.1 |
| 20260505114812 | 56 | 208 | 2.0 | 6.0 | 0.03 | 0.20 | 0.17 | 96 | 1009.1 |
| 20260505114325 | 56 | 226 | 2.0 | 5.0 | 0.03 | 0.20 | 0.17 | 96 | 1009.1 |
| 20260505113817 | 56 | 208 | 1.0 | 4.0 | 0.02 | 0.19 | 0.16 | 96 | 1009.2 |
| 20260505113330 | 56 | 216 | 0.0 | 3.0 | 0.02 | 0.19 | 0.16 | 96 | 1009.1 |
| 20260505112827 | 56 | 233 | 2.0 | 5.0 | 0.01 | 0.18 | 0.15 | 96 | 1008.7 |
| 20260505112319 | 56 | 208 | 2.0 | 5.0 | 0.01 | 0.18 | 0.15 | 96 | 1008.6 |
| 20260505111811 | 56 | 205 | 3.0 | 6.0 | 0.00 | 0.17 | 0.14 | 96 | 1008.6 |
| 20260505111324 | 56 | 175 | 1.0 | 5.0 | 0.00 | 0.17 | 0.14 | 96 | 1008.4 |
| 20260505110817 | 56 | 200 | 1.0 | 4.0 | 0.01 | 0.17 | 0.14 | 96 | 1008.4 |
| 20260505110329 | 55 | 204 | 2.0 | 5.0 | 0.01 | 0.17 | 0.14 | 96 | 1008.3 |
| 20260505101827 | 56 | 221 | 0.0 | 0.0 | 0.12 | 0.17 | 0.14 | 95 | 1008.5 |
| 20260505101319 | 56 | 219 | 0.0 | 0.0 | 0.13 | 0.17 | 0.14 | 95 | 1008.7 |
| 20260505100816 | 56 | 141 | 0.0 | 0.0 | 0.13 | 0.16 | 0.13 | 95 | 1008.7 |
| 20260505100329 | 56 | 137 | 0.0 | 1.0 | 0.13 | 0.16 | 0.13 | 95 | 1009.0 |
| 20260505095822 | 56 | 224 | 0.0 | 1.0 | 0.13 | 0.16 | 0.13 | 95 | 1009.3 |
| 20260505095335 | 56 | 261 | 0.0 | 0.0 | 0.12 | 0.15 | 0.12 | 94 | 1009.5 |
| 20260505094847 | 56 | 257 | 0.0 | 0.0 | 0.12 | 0.15 | 0.12 | 94 | 1009.4 |
| 20260505094318 | 56 | 44 | 0.0 | 0.0 | 0.11 | 0.14 | 0.11 | 94 | 1009.5 |
| 20260505093852 | 56 | 58 | 0.0 | 0.0 | 0.10 | 0.13 | 0.10 | 93 | 1009.7 |
| 20260505093323 | 57 | 61 | 0.0 | 5.0 | 0.08 | 0.11 | 0.08 | 93 | 1009.8 |
| 20260505092816 | 57 | 280 | 0.0 | 3.0 | 0.06 | 0.09 | 0.06 | 92 | 1009.8 |
| 20260505092329 | 57 | 315 | 0.0 | 4.0 | 0.03 | 0.06 | 0.03 | 92 | 1009.7 |
| 20260505091826 | 58 | 61 | 0.0 | 5.0 | 0.01 | 0.04 | 0.01 | 92 | 1009.6 |
| 20260505091319 | 58 | 263 | 0.0 | 6.0 | 0.01 | 0.04 | 0.01 | 91 | 1009.6 |
| 20260505090832 | 58 | 240 | 0.0 | 3.0 | 0.00 | 0.03 | 0.00 | 90 | 1009.4 |
| 20260505090323 | 59 | 285 | 0.0 | 3.0 | 0.00 | 0.03 | 0.00 | 89 | 1009.2 |
| 20260505085816 | 59 | 84 | 0.0 | 0.0 | 0.00 | 0.03 | 0.00 | 88 | 1009.2 |
| 20260505085350 | 59 | 98 | 0.0 | 1.0 | 0.00 | 0.03 | 0.00 | 87 | 1009.0 |
| 20260505084821 | 59 | 30 | 0.0 | 1.0 | 0.00 | 0.03 | 0.00 | 87 | 1008.7 |
| 20260505084313 | 59 | 4 | 0.0 | 1.0 | 0.00 | 0.03 | 0.00 | 86 | 1008.6 |
| 20260505083826 | 60 | 297 | 0.0 | 8.0 | 0.00 | 0.03 | 0.00 | 86 | 1008.3 |
| 20260505083322 | 60 | 339 | 0.0 | 8.0 | 0.00 | 0.03 | 0.00 | 85 | 1008.3 |
| 20260505082815 | 60 | 202 | 0.0 | 5.0 | 0.00 | 0.03 | 0.00 | 84 | 1008.6 |
| 20260505082328 | 60 | 333 | 1.0 | 2.0 | 0.00 | 0.03 | 0.00 | 83 | 1008.0 |
| 20260505081821 | 60 | 349 | 0.0 | 0.0 | 0.00 | 0.03 | 0.00 | 83 | 1007.8 |
| 20260505081313 | 61 | 331 | 0.0 | 0.0 | 0.00 | 0.03 | 0.00 | 81 | 1007.6 |
| 20260505080826 | 61 | 331 | 0.0 | 0.0 | 0.00 | 0.03 | 0.00 | 79 | 1007.3 |
| 20260505080318 | 61 | 331 | 0.0 | 0.0 | 0.00 | 0.03 | 0.00 | 78 | 1007.1 |
| 20260505075810 | 62 | 324 | 0.0 | 5.0 | 0.00 | 0.03 | 0.00 | 78 | 1007.2 |
| 20260505075327 | 62 | 350 | 0.0 | 7.0 | 0.00 | 0.03 | 0.00 | 77 | 1007.4 |
| 20260505074840 | 62 | 340 | 2.0 | 7.0 | 0.00 | 0.03 | 0.00 | 74 | 1007.7 |
| 20260505074312 | 62 | 214 | 0.0 | 0.0 | 0.00 | 0.03 | 0.00 | 73 | 1007.6 |
| 20260505073825 | 62 | 214 | 0.0 | 0.0 | 0.00 | 0.03 | 0.00 | 74 | 1007.5 |
| 20260505073317 | 62 | 214 | 0.0 | 0.0 | 0.00 | 0.03 | 0.00 | 73 | 1007.3 |
| 20260505072847 | 61 | 214 | 0.0 | 0.0 | 0.00 | 0.03 | 0.00 | 73 | 1007.3 |
| 20260505072332 | 61 | 214 | 0.0 | 0.0 | 0.00 | 0.03 | 0.00 | 73 | 1007.3 |
| 20260505071824 | 61 | 214 | 0.0 | 1.0 | 0.00 | 0.03 | 0.00 | 73 | 1007.3 |
| 20260505071316 | 62 | 214 | 0.0 | 1.0 | 0.00 | 0.03 | 0.00 | 72 | 1007.1 |
| 20260505070849 | 62 | 214 | 0.0 | 0.0 | 0.00 | 0.03 | 0.00 | 72 | 1007.0 |
| 20260505070321 | 62 | 214 | 0.0 | 0.0 | 0.00 | 0.03 | 0.00 | 71 | 1007.0 |
| 20260505065817 | 63 | 214 | 0.0 | 3.0 | 0.00 | 0.03 | 0.00 | 71 | 1007.1 |
| 20260505065310 | 63 | 214 | 1.0 | 3.0 | 0.00 | 0.03 | 0.00 | 70 | 1007.2 |
| 20260505064823 | 62 | 221 | 1.0 | 2.0 | 0.00 | 0.03 | 0.00 | 71 | 1007.1 |
| 20260505064316 | 62 | 208 | 0.0 | 2.0 | 0.00 | 0.03 | 0.00 | 71 | 1007.1 |
| 20260505063829 | 62 | 245 | 0.0 | 2.0 | 0.00 | 0.03 | 0.00 | 71 | 1007.2 |
| 20260505063322 | 62 | 214 | 0.0 | 3.0 | 0.00 | 0.03 | 0.00 | 71 | 1007.1 |
| 20260505062835 | 63 | 248 | 0.0 | 4.0 | 0.00 | 0.03 | 0.00 | 70 | 1007.0 |
| 20260505062326 | 63 | 241 | 1.0 | 5.0 | 0.00 | 0.03 | 0.00 | 70 | 1006.8 |
| 20260505061824 | 63 | 215 | 1.0 | 8.0 | 0.00 | 0.03 | 0.00 | 69 | 1006.8 |
| 20260505061317 | 63 | 225 | 4.0 | 8.0 | 0.00 | 0.03 | 0.00 | 69 | 1006.7 |
| 20260505060829 | 63 | 220 | 4.0 | 7.0 | 0.00 | 0.03 | 0.00 | 69 | 1006.8 |
| 20260505060342 | 63 | 210 | 4.0 | 10.0 | 0.00 | 0.03 | 0.00 | 69 | 1006.7 |
| 20260505055814 | 63 | 217 | 4.0 | 10.0 | 0.00 | 0.03 | 0.00 | 68 | 1006.6 |
| 20260505055347 | 64 | 225 | 4.0 | 9.0 | 0.00 | 0.03 | 0.00 | 68 | 1006.5 |
| 20260505054818 | 64 | 238 | 4.0 | 9.0 | 0.00 | 0.03 | 0.00 | 68 | 1006.4 |
| 20260505054332 | 64 | 213 | 4.0 | 9.0 | 0.00 | 0.03 | 0.00 | 68 | 1006.3 |
| 20260505053844 | 64 | 217 | 5.0 | 9.0 | 0.00 | 0.03 | 0.00 | 68 | 1006.2 |
| 20260505053315 | 64 | 219 | 5.0 | 9.0 | 0.00 | 0.03 | 0.00 | 68 | 1006.0 |
| 20260505052812 | 64 | 178 | 4.0 | 9.0 | 0.00 | 0.03 | 0.00 | 68 | 1006.1 |
| 20260505052325 | 64 | 216 | 5.0 | 11.0 | 0.00 | 0.03 | 0.00 | 68 | 1006.0 |
| 20260505051838 | 64 | 210 | 6.0 | 11.0 | 0.00 | 0.03 | 0.00 | 68 | 1005.9 |
| 20260505051350 | 64 | 210 | 6.0 | 10.0 | 0.00 | 0.03 | 0.00 | 68 | 1005.9 |
| 20260505050821 | 64 | 205 | 5.0 | 11.0 | 0.00 | 0.03 | 0.00 | 68 | 1005.8 |
| 20260505050335 | 64 | 246 | 6.0 | 10.0 | 0.00 | 0.03 | 0.00 | 68 | 1005.9 |
| 20260505041323 | 64 | 209 | 5.0 | 9.0 | 0.00 | 0.03 | 0.00 | 68 | 1006.2 |
| 20260505040816 | 64 | 160 | 5.0 | 9.0 | 0.00 | 0.03 | 0.00 | 69 | 1006.3 |
| 20260505040328 | 64 | 221 | 4.0 | 9.0 | 0.00 | 0.03 | 0.00 | 69 | 1006.5 |
| 20260505035820 | 65 | 212 | 3.0 | 9.0 | 0.00 | 0.03 | 0.00 | 68 | 1006.5 |
| 20260505035317 | 65 | 214 | 5.0 | 8.0 | 0.00 | 0.03 | 0.00 | 68 | 1006.5 |
| 20260505034830 | 65 | 212 | 4.0 | 9.0 | 0.00 | 0.03 | 0.03 | 68 | 1006.5 |
| 20260505034323 | 65 | 226 | 5.0 | 9.0 | 0.00 | 0.03 | 0.03 | 68 | 1006.6 |
| 20260505033816 | 65 | 232 | 4.0 | 6.0 | 0.00 | 0.03 | 0.03 | 68 | 1006.6 |
| 20260505033329 | 65 | 210 | 5.0 | 8.0 | 0.00 | 0.03 | 0.03 | 68 | 1006.6 |
| 20260505032822 | 65 | 222 | 4.0 | 8.0 | 0.00 | 0.03 | 0.03 | 67 | 1006.6 |
| 20260505032314 | 65 | 225 | 4.0 | 7.0 | 0.00 | 0.03 | 0.03 | 67 | 1006.6 |
| 20260505031811 | 65 | 168 | 3.0 | 6.0 | 0.00 | 0.03 | 0.03 | 67 | 1006.7 |
| 20260505031324 | 65 | 197 | 3.0 | 6.0 | 0.00 | 0.03 | 0.03 | 67 | 1006.7 |
| 20260505030837 | 65 | 223 | 3.0 | 6.0 | 0.00 | 0.03 | 0.03 | 67 | 1006.7 |
| 20260505030329 | 65 | 226 | 3.0 | 6.0 | 0.00 | 0.03 | 0.03 | 67 | 1006.7 |
| 20260505025821 | 66 | 215 | 3.0 | 8.0 | 0.00 | 0.03 | 0.03 | 66 | 1006.6 |
| 20260505025335 | 66 | 214 | 3.0 | 8.0 | 0.00 | 0.03 | 0.03 | 66 | 1006.6 |
| 20260505024827 | 66 | 219 | 3.0 | 6.0 | 0.00 | 0.03 | 0.03 | 66 | 1006.5 |
| 20260505024339 | 66 | 218 | 4.0 | 6.0 | 0.00 | 0.03 | 0.03 | 65 | 1006.5 |
| 20260505023811 | 66 | 220 | 3.0 | 6.0 | 0.00 | 0.03 | 0.03 | 66 | 1006.4 |
| 20260505023324 | 66 | 214 | 3.0 | 6.0 | 0.00 | 0.03 | 0.03 | 65 | 1006.4 |
| 20260505022821 | 66 | 231 | 3.0 | 6.0 | 0.00 | 0.03 | 0.03 | 66 | 1006.3 |
| 20260505022314 | 66 | 212 | 3.0 | 7.0 | 0.00 | 0.03 | 0.03 | 66 | 1006.2 |
| 20260505021827 | 66 | 216 | 3.0 | 7.0 | 0.00 | 0.03 | 0.03 | 66 | 1006.1 |
| 20260505021319 | 66 | 217 | 3.0 | 7.0 | 0.00 | 0.03 | 0.03 | 66 | 1006.0 |
| 20260505020832 | 66 | 222 | 2.0 | 5.0 | 0.00 | 0.03 | 0.03 | 67 | 1005.9 |
| 20260505020324 | 66 | 214 | 3.0 | 5.0 | 0.00 | 0.03 | 0.03 | 67 | 1005.8 |
| 20260505015817 | 66 | 214 | 2.0 | 4.0 | 0.00 | 0.03 | 0.03 | 67 | 1005.7 |
| 20260505015329 | 66 | 211 | 2.0 | 5.0 | 0.00 | 0.03 | 0.03 | 66 | 1005.6 |
| 20260505014822 | 66 | 226 | 2.0 | 5.0 | 0.00 | 0.03 | 0.03 | 66 | 1005.5 |
| 20260505014318 | 67 | 212 | 2.0 | 5.0 | 0.00 | 0.03 | 0.03 | 65 | 1005.4 |
| 20260505013811 | 67 | 227 | 2.0 | 4.0 | 0.00 | 0.03 | 0.03 | 65 | 1005.4 |
| 20260505013323 | 67 | 215 | 2.0 | 5.0 | 0.00 | 0.03 | 0.03 | 65 | 1005.4 |
| 20260505012816 | 67 | 234 | 2.0 | 5.0 | 0.00 | 0.03 | 0.03 | 65 | 1005.4 |
| 20260505012329 | 67 | 210 | 1.0 | 5.0 | 0.00 | 0.03 | 0.03 | 64 | 1005.4 |
| 20260505011822 | 68 | 203 | 1.0 | 6.0 | 0.00 | 0.03 | 0.03 | 63 | 1005.4 |
| 20260505011315 | 68 | 236 | 2.0 | 6.0 | 0.00 | 0.03 | 0.03 | 62 | 1005.3 |
| 20260505010811 | 69 | 212 | 4.0 | 8.0 | 0.00 | 0.03 | 0.03 | 62 | 1005.3 |
| 20260505010324 | 69 | 232 | 4.0 | 8.0 | 0.00 | 0.03 | 0.03 | 61 | 1005.3 |
| 20260505005818 | 69 | 221 | 4.0 | 9.0 | 0.00 | 0.03 | 0.03 | 61 | 1005.3 |
| 20260505005350 | 69 | 224 | 5.0 | 9.0 | 0.00 | 0.03 | 0.03 | 61 | 1005.2 |
| 20260505004822 | 69 | 178 | 5.0 | 8.0 | 0.00 | 0.03 | 0.03 | 61 | 1005.3 |
| 20260505004315 | 69 | 214 | 4.0 | 7.0 | 0.00 | 0.03 | 0.03 | 61 | 1005.3 |
| 20260505003828 | 69 | 224 | 3.0 | 8.0 | 0.00 | 0.03 | 0.03 | 61 | 1005.4 |
| 20260505003320 | 70 | 205 | 3.0 | 9.0 | 0.00 | 0.03 | 0.03 | 60 | 1005.3 |
| 20260505002813 | 70 | 228 | 4.0 | 9.0 | 0.00 | 0.03 | 0.03 | 59 | 1005.4 |
| 20260505002330 | 71 | 205 | 5.0 | 13.0 | 0.00 | 0.03 | 0.03 | 58 | 1005.3 |
| 20260505001823 | 71 | 198 | 6.0 | 13.0 | 0.00 | 0.03 | 0.03 | 57 | 1005.3 |
| 20260505001316 | 71 | 210 | 6.0 | 12.0 | 0.00 | 0.03 | 0.03 | 56 | 1005.3 |
| 20260505000846 | 72 | 217 | 6.0 | 12.0 | 0.00 | 0.03 | 0.03 | 56 | 1005.3 |
| 20260505000318 | 72 | 203 | 6.0 | 10.0 | 0.00 | 0.03 | 0.03 | 56 | 1005.3 |
| 20260504235830 | 72 | 200 | 5.0 | 12.0 | 0.00 | 0.03 | 0.03 | 55 | 1005.4 |
| 20260504235322 | 73 | 218 | 6.0 | 13.0 | 0.00 | 0.03 | 0.03 | 54 | 1005.5 |
| 20260504234815 | 73 | 207 | 7.0 | 15.0 | 0.00 | 0.03 | 0.03 | 53 | 1005.5 |
| 20260504234312 | 74 | 213 | 6.0 | 15.0 | 0.00 | 0.03 | 0.03 | 53 | 1005.5 |
| 20260504233825 | 74 | 247 | 8.0 | 16.0 | 0.00 | 0.03 | 0.03 | 51 | 1005.6 |
| 20260504233317 | 74 | 206 | 9.0 | 16.0 | 0.00 | 0.03 | 0.03 | 51 | 1005.7 |
| 20260504232811 | 74 | 213 | 8.0 | 19.0 | 0.00 | 0.03 | 0.03 | 50 | 1005.7 |
| 20260504232323 | 74 | 203 | 9.0 | 19.0 | 0.00 | 0.03 | 0.03 | 50 | 1005.8 |
| 20260504231816 | 74 | 199 | 8.0 | 16.0 | 0.00 | 0.03 | 0.03 | 50 | 1005.9 |
| 20260504231329 | 74 | 214 | 7.0 | 16.0 | 0.00 | 0.03 | 0.03 | 51 | 1005.9 |
| 20260504230822 | 74 | 244 | 6.0 | 19.0 | 0.00 | 0.03 | 0.03 | 52 | 1006.0 |
| 20260504230319 | 73 | 197 | 9.0 | 19.0 | 0.00 | 0.03 | 0.03 | 51 | 1006.1 |
| 20260504225812 | 74 | 216 | 7.0 | 20.0 | 0.00 | 0.03 | 0.03 | 50 | 1006.1 |
| 20260504225325 | 74 | 208 | 9.0 | 20.0 | 0.00 | 0.03 | 0.03 | 49 | 1006.1 |
| 20260504224838 | 74 | 198 | 10.0 | 19.0 | 0.00 | 0.03 | 0.03 | 49 | 1006.1 |
| 20260504224330 | 74 | 243 | 12.0 | 18.0 | 0.00 | 0.03 | 0.03 | 50 | 1006.1 |
| 20260504223822 | 74 | 198 | 6.0 | 13.0 | 0.00 | 0.03 | 0.03 | 56 | 1006.3 |
| 20260504223314 | 74 | 210 | 7.0 | 13.0 | 0.00 | 0.03 | 0.03 | 56 | 1006.2 |
| 20260504222823 | 74 | 189 | 3.0 | 7.0 | 0.00 | 0.03 | 0.03 | 59 | 1006.3 |
| 20260504222315 | 74 | 133 | 3.0 | 6.0 | 0.00 | 0.03 | 0.03 | 58 | 1006.4 |